Flag for Canada Weather past 2 weeks in Saint John, New Brunswick, Canada

Now
54 °F

Passing clouds.


Feels Like: 49 °F
Forecast: 36 / 54 °F
Wind: 15 mph from Northwest

Location: Saint John

Current Time: Sep 19, 2014 at 5:25:11 PM

Latest Report: Sep 19, 2014 at 5:00 PM


Visibility: 15 mi

Pressure: 30.33 "Hg

Humidity: 26%

Dew point: 19 °F

Location of Saint JohnLocation

Historic Weather in Saint John — Graph

°F

Saint John temperature yesterday

Maximum temperature yesterday: 63 °F (at 11:48 AM)
Minimum temperature yesterday: 43 °F (at 2:00 AM)
Average temperature yesterday: 53 °F

Past Weeks' High & Low Weather Summary

 TemperatureHumidityPressure
High77 °F (Sep 4, 4:00 PM)100% (Sep 5, 3:00 AM)30.49 "Hg (Sep 5, 3:00 AM)
Low34 °F (Sep 9, 6:00 AM)30% (Sep 19, 3:00 PM)29.71 "Hg (Sep 6, 6:00 PM)
Average55 °F79%30.09 "Hg
* Reported Sep 4 4:00 PM — Sep 19 4:00 PM, Saint John, Weather by CustomWeather, © 2014

Note: Actual official high and low records may vary slightly from our data, if they occured in-between our weather recording intervals... More about our weather records

Advertising

Saint John weather history for previous 24 hours

 ConditionsComfort  
Time TempWeatherWind HumidityBarometerVisibility
4:00 PM
Sep 19
54 °FPassing clouds.8 mph30%30.33 "Hg15 mi
3:00 PM54 °FPassing clouds.14 mph30%30.32 "Hg15 mi
2:00 PM52 °FPassing clouds.13 mph35%30.31 "Hg15 mi
1:00 PM50 °FPassing clouds.16 mph40%30.30 "Hg15 mi
12:00 PM48 °FPassing clouds.20 mph43%30.30 "Hg15 mi
11:00 AM46 °FPassing clouds.18 mph43%30.29 "Hg15 mi
10:00 AM45 °FPassing clouds.12 mph53%30.28 "Hg15 mi
9:00 AM39 °FSunny.18 mph65%30.26 "Hg15 mi
8:00 AM37 °FClear.14 mph70%30.24 "Hg15 mi
7:00 AM34 °FClear.9 mph81%30.21 "Hg15 mi
6:00 AM34 °FClear.3 mph81%30.18 "Hg15 mi
5:00 AM34 °FClear.3 mph87%30.16 "Hg15 mi
4:00 AM36 °FClear.7 mph81%30.13 "Hg15 mi
3:00 AM37 °FClear.9 mph81%30.11 "Hg15 mi
2:00 AM37 °FClear.8 mph81%30.11 "Hg15 mi
1:00 AM43 °FClear.9 mph66%30.09 "Hg15 mi
12:00 AM45 °FClear.12 mph66%30.08 "Hg15 mi
11:00 PM
Sep 18
46 °FPassing clouds.10 mph66%30.07 "Hg15 mi
10:00 PM46 °FPassing clouds.9 mph71%30.05 "Hg15 mi
9:00 PM48 °FPassing clouds.10 mph71%30.02 "Hg15 mi
8:00 PM52 °FPassing clouds.12 mph67%29.99 "Hg15 mi
7:00 PM55 °FScattered clouds.13 mph63%29.96 "Hg15 mi
6:00 PM57 °FPartly sunny.13 mph59%29.94 "Hg15 mi
5:00 PM57 °FMostly cloudy.14 mph63%29.94 "Hg15 mi
Weather by CustomWeather, © 2014

See weather overviewHow to use our weather pages